Flight Track Log - Related Links

Times and Time Zones

All times are in EDT time to prevent confusion due to time zone crossing. See the WEW1540 flight status page for this flight to view local times or setup timezone preferences in your user account.

Time Position Orientation Groundspeed Altitude Reporting Facility
EDT Latitude Longitude Course Direction KTS MPH feet Rate Location/Type
Thu 08:07:59 PM 50.3333 -107.4000 77° East 140 161 9,000  Level Winnipeg Center
Thu 08:08:59 PM 50.3333 -107.3167 90° East 170 196 9,000  Level Winnipeg Center
Thu 08:09:00 PM 50.3419 -107.2580 77° East  Level FlightAware Approximate
Thu 08:09:59 PM 50.3333 -107.2333 90° East 190 219 9,000  Level Winnipeg Center
Thu 08:10:00 PM 50.3521 -107.1870 77° East  Level FlightAware Approximate
Thu 08:10:59 PM 50.3500 -107.1667 69° East 190 219 9,000  Level Winnipeg Center
Thu 08:11:00 PM 50.3624 -107.1160 77° East  Level FlightAware Approximate
Thu 08:11:59 PM 50.3500 -107.0833 90° East 190 219 9,000  Level Winnipeg Center
Thu 08:12:00 PM 50.3726 -107.0450 77° East  Level FlightAware Approximate
Thu 08:12:59 PM 50.3667 -106.9833 75° East 190 219 9,000  Level Winnipeg Center
Thu 08:13:00 PM 50.3827 -106.9739 77° East  Level FlightAware Approximate
Thu 08:13:59 PM 50.3833 -106.9000 73° East 190 219 9,000  Level Winnipeg Center
Thu 08:14:59 PM 50.4000 -106.8333 69° East 200 230 9,000  Level Winnipeg Center
Thu 08:15:59 PM 50.4167 -106.7500 73° East 190 219 9,000  Level Winnipeg Center
Thu 08:16:59 PM 50.4333 -106.6500 75° East 200 230 9,000  Level Winnipeg Center
Thu 08:17:59 PM 50.4500 -106.5833 69° East 200 230 9,000  Level Winnipeg Center
Thu 08:18:59 PM 50.4500 -106.5000 90° East 200 230 9,000  Level Winnipeg Center
Thu 08:19:59 PM 50.4667 -106.4000 75° East 200 230 9,000  Level Winnipeg Center
Thu 08:20:59 PM 50.4833 -106.3167 73° East 200 230 9,000  Level Winnipeg Center
Thu 08:21:59 PM 50.5000 -106.2333 73° East 200 230 9,000  Level Winnipeg Center
Thu 08:22:59 PM 50.5000 -106.1667 90° East 200 230 9,000 50 Level Winnipeg Center
Thu 08:23:59 PM 50.5000 -106.0667 90° East 200 230 9,100 50 Climbing Winnipeg Center
Thu 08:24:59 PM 50.5167 -105.9833 73° East 200 230 9,100  Level Winnipeg Center
Thu 08:25:59 PM 50.5333 -105.9000 73° East 200 230 9,100  Level Winnipeg Center
Thu 08:26:59 PM 50.5500 -105.8333 69° East 200 230 9,100  Level Winnipeg Center
Thu 08:27:59 PM 50.5500 -105.7167 90° East 200 230 9,100  Level Winnipeg Center
Thu 08:28:59 PM 50.5500 -105.6500 90° East 190 219 9,100  Level Winnipeg Center
Thu 08:29:59 PM 50.5833 -105.5667 58° Northeast 190 219 9,100  Level Winnipeg Center
Thu 08:30:59 PM 50.5833 -105.4833 90° East 190 219 9,100 -150 Level Winnipeg Center
Thu 08:31:59 PM 50.5667 -105.4167 111° Southeast 190 219 8,800 -450 Descending Winnipeg Center
Thu 08:32:59 PM 50.5667 -105.3000 90° East 200 230 8,200 -750 Descending Winnipeg Center
Thu 08:33:59 PM 50.5500 -105.2167 107° East 200 230 7,300 -700 Descending Winnipeg Center
Thu 08:34:59 PM 50.5500 -105.1333 90° East 200 230 6,800 -750 Descending Winnipeg Center
Thu 08:35:59 PM 50.5333 -105.0667 111° Southeast 200 230 5,800 -800 Descending Winnipeg Center
Thu 08:36:59 PM 50.5167 -104.9833 107° East 200 230 5,200 -350 Descending Winnipeg Center
Thu 08:37:59 PM 50.5333 -104.9000 73° East 180 207 5,100 -300 Descending Winnipeg Center
Thu 08:38:59 PM 50.5167 -104.8167 107° East 150 173 4,600 -650 Descending Winnipeg Center
Thu 08:39:59 PM 50.4833 -104.7833 148° Southeast 130 150 3,800 -750 Descending Winnipeg Center
Thu 08:40:59 PM 50.4667 -104.7500 128° Southeast 130 150 3,100 -750 Descending Winnipeg Center
Thu 08:41:59 PM 50.4333 -104.7000 136° Southeast 130 150 2,300 -650 Descending Winnipeg Center
Thu 08:42:59 PM 50.4167 -104.7000 180° South 90 104 1,800 -500 Descending Winnipeg Center

Login

Don't have an account? Register now (free) for customized features, flight alerts, and more!